バロス彗星

C/2018 E2 ( Barros )

English version
Home page
Updated on September 22, 2018

---------------------------------------------------------------------

・ プロフィール

発見日 2018年3月12日
発見光度 19.4等
発見者 Joao Barros (SONEAR Observatory, near Oliveira, Brazil)

・ 写真集

・ 軌道要素

Epoch 2018 Jan. 2.0 TT = JDT 2458120.5
T 2017 Dec. 23.66498 TT                                 MPCW
q   3.9218112            (2000.0)            P               Q
z  +0.0009671      Peri.  277.47840     -0.07276036     +0.40045217
 +/-0.0001282      Node    67.19625     +0.54839846     +0.78103774
e   0.9962073      Incl.   97.74690     -0.83304565     +0.47918484
From 50 observations 2018 Mar. 12-May 12, mean residual 0".5.

・ 光度変化

        m1 = 9.5 + 5 logΔ + 10.0 log r

---------------------------------------------------------------------

軌道要素はM.P.E.C. 2018-K95に掲載されたものです。
光度グラフはComet for Windowsで作成したものです。

---------------------------------------------------------------------

Copyright(C) Seiichi Yoshida (comet@aerith.net). All rights reserved.